Location: Unspecified
(0.0000°N, 0.0000°E)
Time: 16:20:50
(UTC+00:00)

Altair - Pass Details

Date: 01 October 2023
Orbit: 1501 x 1682 km, 47.2° (Epoch: 06 December)

Event Time Altitude Azimuth Distance (km) Brightness Sun altitude
Rises 08:52:08 0° 345° (NNW) 4,921 10.0 45.5°
Reaches altitude 10° 08:56:21 10° 359° (N) 3,929 9.7 46.5°
Maximum altitude 09:03:42 23° 47° (NE) 3,028 9.8 48.4°
Drops below altitude 10° 09:10:55 10° 94° (E) 3,871 10.5 50.2°
Sets 09:14:57 0° 108° (ESE) 4,831 10.7 51.2°
